Location: ?????????
(54.9708°N, 39.1158°E)
Time: 13:18:27
(UTC+00:00)

Daily predictions for brighter satellites

Satellite Brightness Start Highest point End
(mag) Time Altitude Azimuth Time Altitude Azimuth Time Altitude Azimuth
YAOGAN 1 4.0 16:25:01 10° S 16:29:07 42° W 16:33:13 10° NNW
Cosmos 1980 Rocket 4.1 16:24:52 10° W 16:29:53 32° NW 16:34:54 10° NNE
Cosmos 1400 Rocket 3.0 16:26:35 10° N 16:30:21 46° ENE 16:34:03 10° SE
Cosmos 2061 Rocket 4.1 16:25:09 10° S 16:31:26 62° E 16:37:47 10° NNE
BREEZE-M DEB (TANK) 4.1 16:29:17 10° SW 16:31:43 32° SSE 16:36:21 10° E
Cosmos 1937 Rocket 3.9 16:28:20 10° NNW 16:33:35 69° WSW 16:38:50 10° SSE
Cosmos 1174 4.3 16:28:26 10° SW 16:33:50 87° SE 16:38:10 10° NE
USA 59 Rocket -0.2 16:30:34 10° NW 16:33:59 70° NE 16:38:31 10° ESE
COSMOS 2428 3.8 16:30:57 10° SSE 16:35:17 23° ESE 16:39:40 10° NE
Cosmos 2233 Rocket 4.0 16:29:20 10° S 16:35:21 61° E 16:41:25 10° NNE
Meteor 2-4 Rocket 4.0 16:30:37 10° NNW 16:36:36 84° WSW 16:42:31 10° S
Cosmos 1707 3.6 16:33:48 10° N 16:36:53 26° ENE 16:39:56 10° SE
Cosmos 1818 4.5 16:33:02 10° S 16:37:34 27° ESE 16:42:08 10° ENE
CSL-04 Debris 4.3 16:32:19 10° SE 16:37:42 62° ENE 16:43:07 10° NNW
Cosmos 2292 Rocket 4.2 16:33:19 10° NNW 16:37:54 57° W 16:41:28 10° S
Cosmos 1943 Rocket 3.0 16:32:56 10° NNW 16:38:04 37° NE 16:43:09 10° ESE
USA 276 3.1 16:36:07 10° SW 16:38:36 27° S 16:40:58 10° ESE
CZ-4 R/B 1.3 16:35:29 10° SSE 16:39:17 89° ENE 16:43:10 10° NNW
Cosmos 468 Rocket 4.1 16:36:22 10° SSW 16:41:30 84° WNW 16:46:40 10° NNE
Lacrosse 4 Rocket 1.6 16:39:05 10° NW 16:43:27 84° SW 16:47:47 10° SE
ADEOS 4.2 16:39:44 10° S 16:44:54 62° WSW 16:50:06 10° NNW
Cosmos 841 Rocket 3.5 16:41:35 10° S 16:46:41 60° ESE 16:51:47 10° NNE
PAYLOAD B 4.3 16:41:13 10° SSE 16:46:50 88° WSW 16:52:30 10° NNW
KORONAS-FOTON 4.2 16:43:17 10° N 16:46:50 41° ENE 16:50:21 10° SE
Cosmos 1726 1.8 16:45:08 10° SSE 16:47:49 41° E 16:50:31 10° NNE
Cosmos 1536 4.3 16:45:27 10° SE 16:47:58 17° E 16:50:30 10° NE
Cosmos 1356 Rocket 4.1 16:44:07 10° N 16:48:02 37° ENE 16:51:55 10° SE
Tsikada Rocket 4.3 16:43:31 10° NNW 16:49:45 76° W 16:56:03 10° S
NOSS 2-1 (C) 3.2 16:46:57 10° NW 16:50:24 89° NNE 16:54:57 10° SE
Cosmos 1328 Rocket 3.5 16:46:37 10° N 16:50:55 63° ENE 16:55:09 10° SSE
Cosmos 1125 Rocket 4.2 16:48:55 10° NNW 16:53:48 38° NE 16:58:18 12° ESE
Cosmos 2278 Rocket 2.4 16:48:13 10° NNW 16:53:49 57° NE 16:59:17 11° SE
SeaSat 1 3.9 16:49:57 10° NNE 16:54:34 40° NW 16:59:08 10° WSW
Terra 3.2 16:51:47 10° ESE 16:55:20 23° NE 16:58:58 10° N
Cosmos 1674 2.3 16:54:00 10° N 16:57:22 74° ENE 17:00:42 10° SSE
Meteor 1-4 Rocket 2.1 16:55:15 10° N 16:57:52 45° ENE 17:00:18 11° SSE
Cosmos 540 Rocket 4.2 16:53:44 10° SW 16:58:46 58° WNW 17:03:49 10° NNE
Iridium 4 Rocket 3.1 16:55:38 10° N 16:59:58 83° W 17:04:06 10° S
CZ-4B R/B 3.2 16:54:56 10° SSE 17:00:26 90° WNW 17:05:53 10° NNW
Cosmos 1743 2.4 16:57:12 10° S 17:00:45 73° E 17:04:20 10° NNE
Cosmos 2016 Rocket 4.3 16:55:13 10° SSW 17:01:18 70° WNW 17:07:26 10° N
ERS-1 Rocket 3.9 16:59:44 12° ESE 17:03:41 31° ENE 17:08:04 10° N
USA 308 2.6 17:04:31 10° SW 17:05:01 12° SSW 17:05:01 12° SSW
TSX-5 3.6 17:02:00 10° NW 17:05:10 61° WSW 17:08:16 10° SSE
CZ-4B R/B 3.7 17:03:13 10° S 17:06:54 50° W 17:10:48 10° NNW
ATLAS 2AS CENTAUR R/B 3.3 17:00:14 10° WSW 17:07:25 64° NNW 17:14:20 10° NE
NOSS 8 (A) 4.5 17:05:15 10° SSW 17:08:55 50° SE 17:11:54 10° ENE
Genesis I 2.8 17:06:05 10° SW 17:09:32 84° SE 17:13:05 10° NE
SPOT 5 3.2 17:06:02 11° SE 17:10:17 45° ENE 17:14:36 10° N
CARTOSAT-1 3.8 17:06:58 10° S 17:11:12 69° WSW 17:15:28 10° NNW
USA 290 2.4 17:08:43 10° NNW 17:11:57 58° ENE 17:14:16 17° SE
MOS 1-B 4.4 17:10:25 10° SSE 17:16:14 86° WSW 17:22:04 10° NNW
Cosmos 2360 Rocket 2.6 17:12:48 10° SW 17:18:26 67° NW 17:24:05 10° NNE
Okean 3 Rocket 4.1 17:15:05 10° SSE 17:19:15 39° E 17:23:25 10° NNE
Okean O Rocket 1.6 17:17:52 10° SSE 17:22:18 88° WSW 17:26:47 10° NNW
NOSS 2-1 (E) 3.9 17:22:53 10° WNW 17:26:25 55° SW 17:30:05 15° SSE
Resurs 01 Rocket 2.5 17:22:32 10° S 17:26:51 51° W 17:31:12 10° NNW
Cosmos 2237 Rocket 3.2 17:23:14 12° SSE 17:27:10 23° ESE 17:31:31 10° NE
Cosmos 2322 Rocket 3.2 17:21:49 10° SW 17:27:24 52° NW 17:33:00 10° NNE
ACS3 Solar Sail 1.9 17:21:07 10° SSE 17:27:31 84° ENE 17:33:58 10° NNW
Cosmos 1340 3.4 17:26:07 10° SSW 17:29:17 47° WNW 17:32:29 10° N
IKONOS-2 4.4 17:25:23 10° NNE 17:29:31 61° ESE 17:33:38 10° S
USA 186 3.5 17:27:51 10° SSW 17:30:47 32° W 17:33:45 10° NNW
Helios 1A 3.9 17:27:07 10° N 17:31:04 50° WNW 17:34:59 10° SW
MOS 1 Rocket 3.7 17:27:39 17° SE 17:31:23 54° ENE 17:36:29 10° N
Cosmos 1814 Rocket 4.1 17:27:45 10° S 17:32:53 53° ESE 17:38:00 10° NE
Cosmos 2333 Rocket 2.9 17:29:27 10° SW 17:35:09 58° NW 17:40:52 10° NNE
NOSS 2-1 (D) 4.2 17:33:00 10° WNW 17:36:28 44° SW 17:39:51 16° SSE
Cosmos 1515 Rocket 3.4 17:32:31 10° N 17:36:53 83° E 17:40:28 15° SSE
Cosmos 2344 4.4 17:31:07 10° W 17:38:08 48° N 17:46:16 10° ENE
Okean-O 2.5 17:34:45 15° SSE 17:38:22 81° ENE 17:42:48 10° NNW
Cosmos 2219 Rocket 2.3 17:33:37 10° SW 17:39:19 80° NW 17:45:02 10° NNE
BlueWalker 3 3.0 17:36:12 10° W 17:39:34 31° SSW 17:41:17 21° SSE
MetOp-B 4.1 17:36:23 15° SSE 17:40:50 76° ENE 17:46:14 10° NNW
CSL-04 Rocket 4.4 17:37:48 10° S 17:43:03 51° W 17:48:15 10° NNW
Sich 1 3.8 17:43:47 26° ESE 17:44:54 30° E 17:48:40 10° NNE
USA 245 3.6 17:45:40 22° NE 17:45:40 22° NE 17:47:06 10° N
USA 267 3.3 17:41:40 19° ESE 17:46:35 88° SSW 17:53:11 10° WNW
Cosmos 1805 4.2 17:46:41 25° E 17:46:41 25° E 17:49:39 10° NNE
SL-16 R/B 4.1 17:42:43 10° W 17:47:49 32° NW 17:52:55 10° NNE
CZ-4C R/B 4.5 17:46:03 10° NE 17:48:49 23° E 17:48:49 23° E
Cosmos 1842 4.1 17:46:31 10° NNW 17:49:59 44° W 17:53:26 10° SSW
Cosmos 2369 Rocket 3.3 17:49:40 10° NNW 17:54:51 33° NE 17:58:08 19° E
Cosmos 1980 4.2 17:50:23 10° S 17:55:34 38° ESE 18:00:46 10° NE
Meteor 1-13 Rocket 4.3 17:49:53 10° NNW 17:55:51 87° WSW 18:00:34 16° S
IRS-1C Rocket 4.1 17:52:38 22° SSE 17:56:03 73° ENE 18:01:20 10° NNW
DELTA 2 DEB (DPAF) 4.0 17:52:35 10° NNE 17:56:44 58° ESE 17:59:32 19° S
Cosmos 1766 Rocket 4.1 17:52:44 10° SSW 17:57:01 59° WNW 18:01:23 10° N
Cosmos 2298 Rocket 4.2 17:53:25 10° NNW 17:58:41 60° ENE 18:01:17 29° SE
Cosmos 1500 Rocket 3.9 17:57:22 31° SE 17:58:57 43° E 18:03:06 10° NNE
Cosmos 2322 3.6 17:54:13 10° SSW 17:59:52 88° ESE 18:05:35 10° NE
USA 32 4.0 17:54:51 10° N 18:00:06 69° E 18:03:12 25° SSE
Cosmos 1428 Rocket 4.4 17:56:35 10° N 18:02:45 80° E 18:06:58 21° SSE
SWARM A 4.4 18:00:33 20° S 18:02:51 79° W 18:06:23 10° N
Cosmos 1743 Rocket 4.1 18:02:36 34° ESE 18:03:20 37° E 18:07:19 10° NNE
Cosmos 2150 Rocket 4.0 17:58:44 10° NNW 18:03:56 64° ENE 18:06:16 32° SE
Spot 2 Rocket 3.6 18:01:44 29° SE 18:04:11 61° ENE 18:09:10 10° N
In-Cosmos 22 4.5 18:01:10 10° NNW 18:06:55 71° W 18:11:29 16° S
NOSS 3-4 (A) 4.0 18:02:13 10° NW 18:08:30 59° NNE 18:13:10 23° E
NOSS 3-4 (C) 4.0 18:02:19 10° NW 18:08:36 58° NNE 18:13:16 23° E
Meteor 2-10 4.1 18:03:47 10° S 18:09:19 75° E 18:15:02 10° NNE
Cosmos 1315 Rocket 2.8 18:07:27 10° NNW 18:11:26 79° WSW 18:13:04 34° S
Cosmos 1707 4.2 18:08:31 10° NNW 18:11:42 31° W 18:14:39 11° SSW
USA 276 3.8 18:09:56 10° WSW 18:11:16 19° SW 18:11:16 19° SW
Cosmos 1570 Rocket 4.2 18:09:36 24° SSE 18:12:26 47° ESE 18:17:29 10° NE
CZ-4 R/B 4.3 18:12:53 10° WSW 18:14:26 12° W 18:15:59 10° WNW
Nadezhda 4 Rocket 4.3 18:09:20 10° NNW 18:15:32 68° W 18:21:01 14° S
Cosmos 2195 Rocket 4.4 18:09:25 10° N 18:15:35 86° E 18:19:24 25° SSE
Cosmos 1408 Rocket 3.4 18:13:30 25° S 18:16:02 78° E 18:20:27 10° NNE
Cosmos 1733 3.0 18:15:43 27° SSW 18:17:27 74° WNW 18:20:56 10° N
Cosmos 1092 Rocket 4.0 18:11:20 10° N 18:17:39 76° ENE 18:21:13 28° SSE
Meteor 1-23 Rocket 4.1 18:12:23 10° NNW 18:18:03 88° E 18:21:06 29° SSE
COSMOS 2428 2.7 18:13:11 10° SW 18:18:53 84° WNW 18:24:42 10° NNE
Cosmos 1818 3.6 18:15:11 10° SW 18:20:40 81° NW 18:26:12 10° NE
Lacrosse 4 Rocket 4.0 18:18:27 10° WNW 18:21:02 16° WSW 18:23:35 10° SW
Cosmos 1943 Rocket 2.4 18:16:41 10° NW 18:22:07 61° WSW 18:24:57 28° S
Cosmos 1975 3.5 18:22:48 35° ENE 18:22:48 35° ENE 18:25:52 10° NNE
USA 59 Rocket 1.8 18:20:11 10° WNW 18:23:20 24° SW 18:25:31 17° SSW
Cosmos 1536 3.3 18:20:01 12° SSW 18:23:27 57° WNW 18:27:15 10° N
SL-16 R/B 3.7 18:25:29 19° E 18:25:29 19° E 18:27:59 10° NE
Cosmos 2026 Rocket 3.9 18:18:13 10° N 18:24:34 85° ENE 18:28:00 29° SSE
OPS 6432 4.1 18:24:05 10° NW 18:27:20 83° N 18:27:20 83° N
Cosmos 1464 Rocket 4.3 18:22:50 10° SSW 18:29:07 70° WNW 18:35:31 10° N
Terra 1.9 18:30:28 34° S 18:32:30 72° WSW 18:37:13 10° NNW
Okean 1-7 4.1 18:28:41 10° N 18:32:30 29° ENE 18:32:39 29° ENE
SL-14 R/B 3.2 18:29:28 10° NNW 18:33:16 77° W 18:33:54 58° SSW
Meteor 1-11 Rocket 3.7 18:27:38 10° SSW 18:33:18 81° WNW 18:38:54 10° NNE
CRYOSAT 2 4.4 18:29:17 10° N 18:34:13 80° W 18:36:55 27° SSW
Cosmos 158 Rocket 3.8 18:33:42 44° SSE 18:34:53 58° ESE 18:39:40 10° NNE
Cosmos 1634 Rocket 4.1 18:32:27 34° SSE 18:35:05 58° E 18:41:17 10° NNE
Cosmos 1125 Rocket 4.2 18:30:59 10° NW 18:35:57 47° WSW 18:38:31 26° SSW
Ariane Rocket 2.9 18:34:38 41° SSE 18:36:28 89° W 18:41:34 10° NNW
Cosmos 2278 Rocket 3.4 18:32:36 10° NW 18:37:43 36° WSW 18:41:07 19° SSW
SPOT 3 Rocket 3.5 18:36:39 41° SSE 18:38:30 90° SSE 18:43:41 10° NNW
Cosmos 1805 Rocket 3.4 18:37:26 48° S 18:38:37 85° E 18:42:59 10° NNE
ERS-1 Rocket 3.5 18:39:39 27° SSW 18:42:14 54° W 18:47:11 10° NNW
Meteor 2-9 Rocket 4.2 18:38:56 17° SSW 18:43:06 78° WNW 18:48:34 10° NNE
Cosmos 1862 Rocket 3.5 18:42:13 10° N 18:46:36 64° ENE 18:46:56 62° ESE
Cosmos 2034 Rocket 4.1 18:41:53 11° SSW 18:47:49 73° WNW 18:54:02 10° N
Okean 3 3.4 18:44:07 10° N 18:48:14 62° ENE 18:48:15 62° ENE
SPOT 5 4.3 18:45:11 15° SSW 18:48:27 30° W 18:52:30 10° NNW
Celestis-02/Orion 38 4.4 18:45:45 10° NE 18:50:54 68° ESE 18:52:45 39° S
Cosmos 1707 Rocket 3.4 18:47:25 10° N 18:51:55 81° ENE 18:52:21 70° SE
USA 215 3.4 18:45:57 10° ENE 18:52:13 46° SE 18:58:28 10° SW
Cosmos 1633 Rocket 4.0 18:53:17 34° ENE 18:53:17 34° ENE 18:56:29 10° NNE
Cosmos 2208 Rocket 3.9 18:55:25 44° S 18:57:04 75° ESE 19:02:25 10° NNE
NOSS 0 Rocket 4.0 18:51:15 10° SW 18:57:31 79° NW 19:03:49 10° NE
MetOp-A 3.8 18:58:35 57° E 18:58:49 58° ENE 19:03:30 10° N
Okean O Rocket 4.3 18:56:48 10° WSW 18:59:15 14° W 19:01:42 10° NW
ATLAS 2AS CENTAUR R/B 3.9 18:52:44 10° WNW 18:59:26 42° N 19:05:53 10° ENE
Cosmos 1666 Rocket 4.0 19:00:46 48° ENE 19:00:46 48° ENE 19:04:24 10° NNE
Landsat 4 4.5 19:01:44 40° NNE 19:01:44 40° NNE 19:04:10 10° N
Meteor 1-21 4.5 18:57:35 10° NNW 19:03:15 65° W 19:05:22 39° SSW
Cosmos 1656 Rocket 3.6 18:58:03 10° NNW 19:03:47 88° ENE 19:05:00 57° SE
Cosmos 773 Rocket 4.1 19:06:05 54° E 19:06:05 54° E 19:11:00 10° NNE
Cosmos 2228 Rocket 3.2 19:04:03 10° NNW 19:08:36 70° W 19:09:07 63° SW
Aureole 3 Rocket 4.4 19:02:26 10° SSW 19:09:36 60° WNW 19:14:44 10° N
Cosmos 2237 Rocket 2.2 19:05:00 10° SW 19:10:38 81° NW 19:16:19 10° NNE
Cosmos 2297 3.6 19:05:11 10° NNW 19:10:52 89° ENE 19:11:54 61° SE
ACS3 Solar Sail 3.8 19:07:17 10° SW 19:12:22 24° W 19:17:28 10° NNW
Cosmos 1441 Rocket 4.3 19:13:49 36° NNE 19:13:49 36° NNE 19:16:03 10° NNE
ARIANE 5 R/B 3.3 19:19:16 43° NE 19:19:16 43° NE 19:23:01 10° N
NOSS 3-3 (C) 3.9 19:22:05 54° ESE 19:22:05 54° ESE 19:28:00 10° NE
Sich 1 4.3 19:20:26 26° WSW 19:22:12 38° WNW 19:26:15 10° N
CZ-4C R/B 4.2 19:19:34 10° N 19:23:09 43° WNW 19:23:38 41° W
Cosmos 2279 Rocket 3.9 19:22:18 53° S 19:23:55 83° E 19:30:11 10° NNE
Cosmos 2219 Rocket 4.3 19:19:22 10° W 19:24:08 27° NNW 19:28:54 10° NNE
USA 267 3.6 19:29:00 43° SSW 19:30:02 46° SW 19:36:19 10° WNW
NOSS 3-3 (A) 3.7 19:38:26 70° SSE 19:38:42 71° SE 19:45:18 10° NE
Cosmos 2369 Rocket 2.1 19:33:40 10° NW 19:39:24 74° WSW 19:39:53 69° SSW
Cosmos 1980 4.3 19:33:55 10° SW 19:39:30 55° NW 19:45:07 10° NNE
Okean 2 4.2 19:38:32 10° NNW 19:41:41 47° NW 19:41:41 47° NW
SL-08 ROCKET BODY 4.4 19:42:44 10° NNW 19:48:59 81° W 19:49:53 66° SSW
Cosmos 192 4.4 19:44:21 10° NNW 19:48:53 69° WNW 19:48:53 69° WNW
Cosmos 2344 4.1 19:46:25 10° NW 19:53:57 62° NNE 20:00:25 22° E
ATLAS CENTAUR R/B 4.0 20:01:59 11° NE 20:01:59 11° NE 20:02:09 10° NE
NOSS 3-4 (A) 3.9 19:53:04 10° NW 19:59:37 61° SW 20:00:35 56° SSW
NOSS 3-4 (C) 3.9 19:53:10 10° NW 19:59:43 61° SW 20:00:41 56° SSW
Cosmos 1607 4.0 20:00:25 62° ESE 20:00:25 62° ESE 20:06:16 10° NE
Cosmos 1943 Rocket 4.5 20:02:31 10° WNW 20:04:45 12° W 20:06:27 11° WSW
RESURS DK-1 4.5 20:03:10 10° NNW 20:06:13 20° NNE 20:06:43 19° NE
SL-16 R/B 2.1 20:07:19 89° NNE 20:07:19 89° NNE 20:13:00 10° NNE
ASTEX 1 3.6 20:09:36 67° N 20:09:36 67° N 20:13:52 10° N
Okean 1-7 4.2 20:05:49 10° NNW 20:09:11 37° WNW 20:09:11 37° WNW
Cosmos 2266 Rocket 4.2 20:03:57 10° NNW 20:10:03 61° W 20:10:56 55° SW
Meteor 2-5 Rocket 3.8 20:04:39 10° N 20:10:36 68° ENE 20:10:47 67° E
Terra 4.3 20:09:10 10° WSW 20:10:57 12° W 20:12:56 10° WNW
Cosmos 2056 Rocket 4.1 20:10:06 10° NNW 20:15:10 47° NE 20:15:12 47° NE
ALOS 2 3.5 20:25:26 47° N 20:25:26 47° N 20:28:40 10° NNW
Meteor 1-22 Rocket 4.5 20:30:04 59° ENE 20:30:04 59° ENE 20:34:59 10° NNE
Cosmos 1655 Rocket 4.1 20:24:13 10° NNW 20:30:31 64° W 20:31:03 61° WSW
Meteor 1-24 Rocket 3.7 20:26:37 10° NNW 20:32:38 88° WNW 20:32:38 88° WNW
H-2A R/B 3.7 20:34:25 40° N 20:34:25 40° N 20:37:12 10° NNW
Cosmos 1943 3.9 20:34:42 44° ENE 20:34:42 44° ENE 20:38:49 10° NE
Nadezhda 2 Rocket 4.4 20:29:06 10° N 20:35:29 77° ENE 20:35:46 75° ESE
USA 215 3.1 20:29:05 10° ENE 20:35:41 88° SSE 20:42:16 10° WSW
Cosmos 1244 Rocket 4.3 20:37:24 10° N 20:43:37 89° ENE 20:43:41 88° SE
Cosmos 1553 Rocket 4.3 20:45:06 56° E 20:45:06 56° E 20:51:03 10° NNE
Cosmos 1538 Rocket 4.4 20:49:11 62° NNE 20:49:11 62° NNE 20:53:41 10° NNE
Cosmos 1697 Rocket 4.1 20:44:24 10° NNW 20:49:30 33° NE 20:51:36 25° ENE
Cosmos 1420 Rocket 4.3 20:44:30 10° NNW 20:48:48 62° NNW 20:48:48 62° NNW
ATLAS 2AS CENTAUR R/B 3.4 20:44:50 10° NW 20:51:39 51° NNE 20:56:21 19° E
Meteor 2-10 Rocket 3.8 20:54:31 64° NNE 20:54:31 64° NNE 20:59:07 10° NNE
ARIANE 5 R/B 4.4 20:56:43 24° WNW 20:56:43 24° WNW 20:59:14 10° NNW
Cosmos 2237 Rocket 4.1 20:50:48 10° W 20:55:31 27° NNW 21:00:17 10° NNE
Cosmos 1656 3.9 20:54:28 10° NNW 21:00:10 63° NE 21:00:10 63° NE
Cosmos 724 4.5 21:11:49 62° WNW 21:12:17 65° NW 21:18:06 10° NE
Cosmos 1680 Rocket 4.4 21:14:38 42° ENE 21:14:38 42° ENE 21:18:26 10° NNE
Cosmos 2369 Rocket 4.2 21:19:02 10° WNW 21:21:39 16° W 21:21:39 16° W
Meteor 1-12 Rocket 4.3 21:26:29 71° NW 21:26:29 71° NW 21:31:44 10° NNE
Cosmos 1953 4.3 21:30:32 25° NNE 21:30:32 25° NNE 21:32:19 10° NNE
H-2A R/B 3.8 21:26:13 10° NNE 21:28:45 27° NE 21:28:45 27° NE
ATLAS CENTAUR R/B 3.4 21:36:42 24° N 21:36:42 24° N 21:39:34 10° NE
S3M 4.0 21:37:10 69° E 21:37:10 69° E 21:43:12 10° NNE
SL-19 R/B 4.3 21:37:21 10° NNE 21:42:36 78° NE 21:42:36 78° NE
RESURS DK-1 4.3 21:40:27 10° NW 21:42:14 25° NNW 21:42:14 25° NNW
Cosmos 1745 Rocket 4.0 21:38:24 10° NNW 21:44:30 70° W 21:44:30 70° W
Cosmos 1980 Rocket 3.4 21:42:20 10° NNW 21:47:35 39° NE 21:50:14 25° E
SL-16 R/B 3.9 21:49:08 19° W 21:52:07 29° NW 21:57:03 10° NNE
Cosmos 1452 Rocket 3.8 21:48:15 10° NNW 21:52:48 65° N 21:52:48 65° N
Cosmos 2112 Rocket 4.3 21:56:51 66° NNE 21:56:51 66° NNE 22:01:27 10° NNE
Cosmos 1331 Rocket 4.3 21:52:20 10° NNW 21:56:50 64° NNW 21:56:50 64° NNW
CZ-3B R/B 3.4 21:40:03 10° WNW 21:58:02 73° SSW 21:58:53 66° SSE
CZ-2C R/B 3.7 21:59:29 34° E 22:00:31 37° ENE 22:05:15 10° N
IDEFIX/ARIANE 42P 4.4 21:57:50 10° NE 22:01:43 20° E 22:02:12 20° E
Cosmos 2360 4.3 21:56:28 10° NW 22:01:27 67° NW 22:01:27 67° NW
Cosmos 1603 3.9 22:04:06 63° NW 22:04:09 63° NW 22:09:48 10° NNE
USA 281 4.0 22:01:01 20° ESE 22:05:27 49° NE 22:11:44 10° NNW
Cosmos 1417 Rocket 4.5 22:07:36 68° W 22:07:51 69° WNW 22:14:12 10° N
In-Cosmos 22 Rocket 4.2 22:02:48 10° NNW 22:08:00 75° NW 22:08:00 75° NW
Cosmos 2344 4.0 22:00:42 10° NW 22:08:37 61° SW 22:10:20 54° SSW
Cosmos 2315 Rocket 3.8 22:09:52 80° SE 22:10:05 81° E 22:16:19 10° NNE
Cosmos 883 Rocket 4.3 22:11:20 86° SSE 22:11:27 88° E 22:17:37 10° NNE
Meteor 1-16 Rocket 4.4 22:14:29 57° NW 22:14:29 57° NW 22:19:18 10° N
Cosmos 1943 4.1 22:16:28 36° WNW 22:17:34 40° NW 22:22:54 10° NNE
USA 215 3.3 22:12:09 10° E 22:18:42 76° N 22:25:14 10° W
Cosmos 2154 Rocket 4.5 22:14:42 10° N 22:20:48 55° ENE 22:22:22 44° ESE
Cosmos 1908 Rocket 4.5 22:22:57 47° N 22:22:57 47° N 22:26:14 10° N
Cosmos 1833 Rocket 3.4 22:24:24 41° ESE 22:24:24 41° ESE 22:29:28 10° NE
ARIANE 6 FM1 Upper Stage 3.9 22:26:27 41° NE 22:26:27 41° NE 22:29:24 10° NE
Resurs 1-4 Rocket 3.8 22:24:12 10° NE 22:28:20 23° E 22:29:27 21° ESE
Cosmos 921 Rocket 3.8 22:34:26 49° NNE 22:34:26 49° NNE 22:37:44 10° NNE
Cosmos 1709 Rocket 4.4 22:27:51 10° NNW 22:33:49 47° W 22:33:49 47° W
Cosmos 1697 Rocket 2.8 22:28:20 10° NW 22:33:15 65° WNW 22:33:15 65° WNW
Cosmos 1782 Rocket 4.2 22:38:46 54° N 22:38:46 54° N 22:42:15 10° NNE
Cosmos 494 Rocket 4.0 22:39:31 76° NNW 22:39:31 76° NNW 22:44:26 10° NNE
ATLAS 2AS CENTAUR R/B 2.5 22:36:05 10° NW 22:42:58 73° SW 22:43:40 67° S
Cosmos 2322 Rocket 4.3 22:40:23 10° NNW 22:45:08 26° NNE 22:49:52 10° E
Cosmos 2074 Rocket 3.8 22:44:45 10° NNW 22:51:00 85° W 22:51:48 70° S
Cosmos 1992 Rocket 4.3 22:46:56 10° NNW 22:52:08 63° ENE 22:53:23 48° ESE
Cosmos 2369 3.9 22:47:19 10° NNW 22:53:01 67° NE 22:55:38 33° SE
COBE Rocket 4.2 22:48:41 10° N 22:52:58 57° NW 22:52:58 57° NW
Cosmos 2333 Rocket 4.4 22:48:43 10° NNW 22:53:29 26° NNE 22:58:13 10° E
Cosmos 2082 Rocket 3.7 22:55:04 22° SE 22:56:23 24° ESE 23:00:46 10° NE
Nimbus 7 Rocket 4.3 22:58:38 10° NNE 23:04:29 69° WNW 23:05:15 62° WSW
Cosmos 1953 4.5 23:05:32 17° NW 23:05:32 17° NW 23:07:24 10° NNW
CZ-2D R/B 3.2 22:59:46 10° NNE 23:04:53 39° E 23:06:27 33° SE
SL-16 R/B 3.4 22:59:51 10° SE 23:05:45 48° ENE 23:11:43 10° N
SL-16 R/B 3.5 23:00:30 10° NNW 23:05:50 39° NE 23:11:08 10° ESE
H-2A R/B 3.2 23:01:54 10° N 23:05:28 35° NW 23:05:28 35° NW
Cosmos 1271 Rocket 4.2 23:05:33 10° N 23:08:46 31° ENE 23:08:52 31° ENE
Cosmos 521 Rocket 4.4 23:07:26 10° NW 23:13:53 64° SW 23:14:50 57° SSW
Cosmos 468 4.4 23:13:38 76° WSW 23:14:00 82° WNW 23:19:20 10° NNE
Cosmos 1461 4.4 23:15:28 25° E 23:15:28 25° E 23:17:48 10° ENE
ATLAS CENTAUR R/B 3.8 23:11:52 10° NW 23:14:48 20° N 23:17:51 10° NE
CZ-4C R/B 3.5 23:15:18 21° SE 23:16:01 22° ESE 23:20:12 10° ENE
Lacrosse 5 3.9 23:18:50 16° SE 23:19:03 16° SE 23:22:08 10° E
SeaSat 1 3.7 23:14:39 10° ESE 23:19:16 41° NE 23:23:53 10° NNW
Geosat 4.0 23:20:12 10° NE 23:25:13 67° ESE 23:25:50 60° SSE
Cosmos 1375 Rocket 4.5 23:20:00 10° NW 23:26:37 88° NE 23:33:06 10° SE
Cosmos 2341 Rocket 4.3 23:20:34 10° N 23:26:48 65° ENE 23:30:56 22° SSE
ADEOS II 3.0 23:22:50 10° NNE 23:27:48 41° E 23:29:51 29° SE
Cosmos 2184 Rocket 4.2 23:22:13 10° NNW 23:28:16 52° W 23:29:04 49° WSW
Cosmos 1980 Rocket 2.1 23:26:21 10° NW 23:31:52 58° WSW 23:31:54 58° WSW
Cosmos 1818 4.4 23:29:09 10° NW 23:34:31 50° NNE 23:39:50 10° ESE
Cosmos 962 Rocket 4.5 23:29:29 10° N 23:35:53 86° ENE 23:39:09 32° SSE
Cosmos 2218 Rocket 4.4 23:29:42 10° N 23:36:02 61° ENE 23:41:36 13° SSE
Cosmos 2327 Rocket 4.3 23:32:01 10° NNW 23:38:11 80° W 23:40:19 43° S
Gbstr 26 Del rocket 4.2 23:37:52 45° S 23:38:50 49° SSE 23:44:18 10° E
CZ-2C R/B 2.9 23:40:58 45° W 23:40:58 45° W 23:45:43 10° NNW
IDEFIX/ARIANE 42P 2.5 23:36:35 10° NNE 23:41:51 81° WNW 23:42:56 57° SSW
Cosmos 2098 Rocket 3.1 23:46:28 48° NNE 23:46:28 48° NNE 23:49:05 10° NNE
ALOS 3.4 23:41:39 10° NNE 23:45:58 38° E 23:48:04 24° SSE
Nadezhda 1 Rocket 3.9 23:46:12 46° SSW 23:48:10 77° WNW 23:54:26 10° N
Cosmos 1536 Rocket 3.9 23:44:32 10° NNW 23:48:26 49° WNW 23:48:26 49° WNW
USA 281 3.3 23:47:53 40° SSW 23:49:57 54° WSW 23:56:24 10° NW
Sich 1 Rocket 3.5 23:50:19 65° SSW 23:50:59 87° W 23:55:36 10° NNE
